{"data":{"norad_id":53556,"epoch":"2026-09-20T14:18:31.520160Z","epoch_age_seconds":70092,"freshness":"FRESH","line1":"1 53556U 22101AF  26263.59619815 -.00000078  00000+0  13184-4 0  9999","line2":"2 53556  53.1598 268.4904 0001245  75.0075 285.1054 15.08832689225730","mean_motion":15.08832689,"eccentricity":0.0001245,"inclination_deg":53.1598,"raan_deg":268.4904,"arg_perigee_deg":75.0075,"mean_anomaly_deg":285.1054,"bstar":1.3184e-5,"rev_number":22573,"period_min":95.438017117351,"perigee_km":538.90445696591,"apogee_km":540.62701474714,"semimajor_km":6917.9027358565,"source":"CELESTRAK","updated_at":"2026-09-21T09:00:32.926520Z"}}